RH
13 17 20 20 21 19 14 12 10 10 11 11 12 13 14 14 13 12 10 12 16 19 22 23 26 27 22 22 29 34 36 39 41 42 44 46 47 49 50 52 54 52 49 50 53 53 54 54 54 57 59 61 64 66 65 65 66 71 72 68 62 56 56 58 60 61 66 71 74 74 73 69 66 70 79 85 84 75 68 67 72 75 76 78 79 79
14 19 20 17 18 17 15 12 10 10 10 10 12 13 13 14 13 11 9 12 15 19 23 23 25 27 24 20 21 28 32 34 38 38 41 44 44 47 49 49 50 48 46 48 50 51 53 53 52 54 57 58 61 63 64 63 63 68 73 72 67 63 63 63 62 62 64 65 63 61 60 55 54 61 69 75 78 75 74 74 73 71 71 74 76 76
18 19 17 15 16 16 15 14 12 10 10 11 11 12 14 13 12 12 10 11 13 18 22 23 25 27 26 20 18 24 28 30 34 35 37 40 42 46 48 48 48 47 46 47 48 50 50 50 51 53 56 56 57 60 62 63 62 65 69 71 72 70 68 68 67 64 61 60 59 54 50 48 50 56 61 67 72 75 79 81 75 69 69 73 75 76
22 18 15 15 15 15 15 14 13 12 11 11 11 12 14 12 13 14 12 11 12 16 20 21 24 25 26 24 18 20 23 26 31 32 33 37 39 43 46 46 47 47 47 47 47 48 48 49 50 52 54 55 56 57 60 62 61 62 64 67 71 73 71 70 71 69 61 57 60 58 53 49 51 55 60 66 71 74 78 81 79 73 69 71 76 80
20 16 14 14 15 15 15 15 14 14 13 11 11 12 12 11 12 14 12 11 12 14 17 20 24 27 29 27 21 18 20 22 26 29 30 34 36 39 42 44 45 45 44 45 46 46 46 48 49 51 52 54 55 55 57 59 60 61 62 63 67 72 72 71 70 72 69 63 62 64 66 65 64 66 66 64 63 67 73 76 76 71 69 72 78 81
17 14 13 15 15 14 15 15 14 14 14 13 11 10 11 11 11 12 12 13 16 18 19 20 27 37 37 30 23 18 19 21 23 26 28 30 34 36 40 42 43 44 43 42 43 44 45 45 47 50 51 52 53 54 54 55 58 60 61 62 65 68 70 71 70 71 73 70 66 64 66 68 68 67 62 53 48 51 57 62 64 66 70 77 81 81
15 13 13 15 15 14 15 15 13 12 14 14 11 9 9 10 10 12 11 14 24 25 20 18 26 40 40 32 27 21 20 21 21 24 26 28 31 32 36 40 42 43 43 43 42 42 43 44 46 49 49 51 52 52 53 54 56 58 60 61 63 65 68 69 70 71 74 73 71 67 62 57 54 53 49 44 42 43 47 53 58 64 73 80 83 84
14 14 14 14 14 14 14 14 12 11 12 12 10 9 10 10 9 11 10 14 24 23 19 19 24 36 38 31 28 23 22 24 22 24 25 27 29 30 32 35 39 42 42 43 43 42 43 44 46 47 49 49 50 51 53 54 55 57 59 60 61 63 66 68 69 71 73 73 71 69 66 57 49 45 42 41 41 45 54 60 61 68 77 81 83 85
13 15 15 14 14 14 13 12 11 9 11 10 8 9 10 10 10 11 11 13 17 16 20 22 22 34 44 36 29 27 26 27 25 23 24 26 28 28 29 31 34 38 39 40 41 41 41 43 44 45 46 48 49 51 52 53 54 55 57 60 61 63 65 67 69 70 72 73 69 65 63 55 46 42 42 42 42 48 62 70 71 74 79 82 84 85
11 12 13 13 13 13 11 10 9 9 10 8 7 8 8 8 9 11 12 13 15 18 23 24 21 30 44 42 34 32 31 29 27 22 21 25 26 27 28 28 30 34 37 37 37 37 38 39 40 41 43 46 48 49 49 51 52 54 57 60 62 63 65 66 68 70 71 73 73 66 60 52 44 42 42 45 48 54 66 74 77 76 76 82 86 84
10 10 10 12 12 11 10 8 8 8 8 7 7 7 7 8 10 13 16 16 18 21 21 22 21 23 35 41 35 32 30 27 26 25 23 24 25 26 27 27 27 30 34 35 36 36 36 37 38 39 43 45 47 49 49 51 51 53 55 58 62 63 65 66 67 70 70 73 75 68 59 51 45 42 42 47 53 61 68 72 75 75 74 80 83 78
10 10 11 10 9 10 9 8 7 7 7 7 7 7 8 10 10 12 17 18 20 24 24 21 20 20 28 35 33 28 25 23 24 25 25 25 25 26 25 26 26 27 30 33 34 36 36 38 40 41 44 45 48 50 51 52 52 53 54 56 60 63 64 65 66 69 70 72 74 69 62 54 46 43 42 46 54 60 64 66 70 72 72 77 80 74
12 11 11 9 8 9 9 9 8 7 7 8 8 10 11 12 14 14 14 19 24 30 30 22 20 24 27 30 30 26 24 23 22 22 23 25 26 25 25 25 25 26 28 30 32 34 36 39 40 42 44 46 49 51 51 53 53 54 55 55 58 61 63 64 65 68 71 71 71 69 64 55 48 45 42 44 53 59 61 63 67 66 67 71 72 68
14 12 10 9 10 8 9 11 10 9 8 8 8 11 13 13 17 18 17 19 25 32 30 19 22 30 28 27 27 25 24 22 21 21 20 23 25 25 24 24 25 26 26 28 29 31 34 36 38 40 42 44 47 49 51 52 54 55 56 56 57 59 62 63 64 66 70 72 71 69 65 56 50 48 44 43 50 59 62 64 63 59 59 62 61 56
17 18 14 10 9 9 9 9 9 9 8 7 7 8 11 13 14 18 23 22 23 32 31 20 23 30 27 27 25 21 21 21 20 20 19 21 23 24 24 23 25 26 26 27 27 29 31 31 33 36 40 43 44 47 50 52 54 56 57 57 58 59 61 64 65 65 66 70 71 71 68 60 52 48 45 43 46 54 61 62 59 56 56 57 56 52
14 17 15 10 9 9 9 8 7 7 8 7 6 6 9 12 11 20 32 28 22 28 27 22 28 31 26 27 25 19 19 21 21 22 21 22 23 24 25 24 25 26 26 26 27 27 28 27 29 34 37 40 42 44 48 51 53 56 57 58 58 58 59 62 64 64 63 65 70 73 70 63 55 50 46 44 44 49 58 60 56 54 54 56 56 54
14 15 12 8 11 8 8 10 6 6 11 10 7 6 9 9 6 16 26 22 17 23 25 23 26 27 23 21 22 21 21 21 23 25 23 23 23 24 26 25 24 26 26 26 27 26 26 26 28 31 34 36 40 42 45 48 51 54 55 58 59 60 60 61 63 64 63 63 67 70 70 64 57 51 47 45 43 44 53 57 55 54 54 56 58 56
15 17 13 9 11 9 7 9 7 7 9 10 8 6 7 7 6 13 19 15 14 20 24 20 19 22 23 24 26 24 23 23 24 25 25 24 24 24 25 25 24 24 25 26 26 25 25 26 27 29 31 33 35 37 40 44 49 52 53 54 58 60 60 59 60 62 64 63 64 66 67 63 57 52 48 45 42 43 49 54 54 54 54 55 57 57
13 16 15 10 10 10 8 9 10 9 5 7 9 6 8 10 9 14 18 16 16 17 19 19 21 25 28 30 32 26 24 25 23 24 25 24 26 24 23 25 25 24 25 25 26 25 25 25 26 27 30 31 33 35 37 42 48 53 53 53 55 57 56 56 57 61 64 65 64 63 62 59 55 52 50 47 44 44 46 49 50 52 52 53 56 57
11 14 15 12 9 9 10 11 12 12 8 8 8 5 9 11 9 11 13 17 21 22 22 20 20 28 33 33 30 24 24 24 22 24 24 22 24 24 22 23 24 25 25 25 25 26 25 24 24 26 28 30 32 34 38 43 48 52 53 52 54 56 56 58 58 59 63 66 66 64 62 59 55 53 52 49 46 45 44 46 49 50 50 50 54 56
12 14 15 15 11 10 11 12 11 11 10 10 9 9 8 7 9 10 8 15 23 30 35 27 20 32 39 32 25 22 23 22 20 22 22 20 21 22 22 22 23 24 25 24 25 25 24 24 24 25 27 29 31 34 40 44 47 50 52 52 53 57 60 61 61 59 60 63 66 64 62 60 58 57 54 50 48 46 43 45 48 49 49 48 51 54
11 13 15 15 12 12 12 10 9 9 9 9 10 10 8 8 12 10 9 15 16 24 36 31 24 31 32 24 20 22 22 20 19 19 20 20 18 19 21 21 21 23 24 24 24 24 24 25 25 26 27 30 32 36 40 44 46 49 52 52 52 55 59 61 62 61 60 61 63 62 58 57 60 61 58 53 50 48 44 44 46 48 49 48 49 51
12 13 15 16 13 12 11 9 9 8 7 8 9 8 7 10 12 12 22 29 17 14 25 27 23 24 27 26 23 23 23 19 18 18 18 17 16 18 20 20 20 21 22 23 23 23 24 24 26 27 28 31 33 35 39 44 46 47 49 52 53 55 57 59 61 61 60 60 60 59 57 56 59 63 62 56 50 48 45 44 45 47 48 47 47 50
14 14 16 17 14 11 9 10 9 8 8 8 8 8 7 8 8 11 30 38 22 13 19 20 16 18 28 27 16 20 28 22 16 16 16 15 15 17 19 20 20 20 21 23 22 23 24 24 26 29 30 32 33 36 40 43 45 46 49 52 53 55 56 59 62 63 62 62 60 59 58 55 57 62 64 58 49 44 43 44 46 47 47 47 47 48
16 15 18 19 18 17 14 12 11 10 9 8 8 7 6 8 7 8 19 24 19 19 19 14 13 24 37 27 7 13 27 26 19 15 15 16 15 16 19 20 21 20 21 22 22 23 24 25 28 29 31 32 33 36 39 41 44 46 48 51 54 56 58 59 63 64 64 64 63 63 61 57 57 60 60 55 46 39 40 44 45 46 47 47 47 48
21 15 17 19 21 22 19 19 22 18 10 8 9 7 6 8 6 7 12 12 18 26 22 17 22 33 37 24 7 7 15 21 24 18 15 17 15 15 18 20 21 21 22 22 22 23 25 26 28 29 30 32 33 35 37 39 43 45 46 50 53 57 59 60 63 65 66 67 67 67 63 60 57 55 53 50 40 34 37 42 44 45 46 45 46 48
25 19 17 17 19 18 16 22 30 23 11 9 10 7 7 7 5 9 12 11 23 31 21 26 36 29 22 19 12 8 6 11 20 20 18 18 15 15 17 19 22 22 22 23 23 25 27 27 28 29 29 31 32 34 35 38 41 43 46 50 53 57 59 59 63 66 67 68 69 69 66 62 55 47 44 42 34 31 33 38 42 43 42 43 45 47
35 32 24 17 16 15 13 15 18 15 11 9 10 8 8 7 6 9 10 12 25 24 12 26 41 25 16 21 17 12 10 13 21 24 21 17 15 16 16 18 22 22 23 25 25 25 26 26 28 29 29 30 32 33 34 37 39 42 45 48 51 56 59 59 61 65 67 69 70 70 67 62 54 43 38 35 33 32 33 36 40 42 42 44 45 45
39 41 31 21 18 13 10 11 10 11 13 10 9 9 8 8 7 8 10 12 19 16 9 26 43 30 19 19 15 14 16 18 22 21 17 16 16 15 17 19 22 24 25 26 25 26 26 25 27 28 27 28 31 33 35 38 40 42 44 46 49 53 57 58 60 63 66 67 68 67 65 62 57 47 39 37 37 37 35 35 38 42 45 46 45 44
38 49 40 30 25 16 10 12 9 9 13 11 11 10 7 8 7 6 10 10 12 14 12 23 37 31 23 22 18 15 14 15 17 16 13 16 18 17 16 18 20 22 24 24 24 24 24 25 27 26 24 26 29 31 34 36 39 42 43 45 48 51 55 59 60 62 64 64 63 63 63 63 60 53 46 41 38 36 35 35 38 43 48 47 45 45
39 51 43 34 34 23 10 12 11 9 12 12 12 11 8 9 9 7 8 9 11 14 13 18 26 25 26 28 23 19 18 15 17 21 17 16 21 22 18 15 16 18 19 20 21 22 23 25 27 25 23 24 27 30 31 32 35 39 42 45 47 50 54 58 59 60 61 59 60 63 65 64 63 59 52 44 39 37 37 37 40 45 49 48 48 50
39 46 40 37 44 35 15 11 12 9 11 12 12 13 10 9 9 8 8 9 11 15 16 18 20 21 24 26 18 18 22 19 19 26 24 18 23 27 23 20 19 17 16 17 19 22 24 25 26 24 21 22 25 26 28 30 33 37 41 44 46 48 53 57 57 57 57 57 59 62 64 63 64 62 56 49 43 39 39 44 47 50 52 53 53 55
38 41 40 41 50 46 26 14 12 10 14 15 12 12 12 11 11 9 9 10 10 13 17 16 18 23 27 25 16 14 20 22 23 24 21 19 24 27 25 22 21 20 20 21 22 24 26 25 24 21 19 20 21 22 24 27 31 36 38 41 45 49 53 55 55 55 55 56 58 59 60 62 64 62 56 50 45 43 48 55 56 55 58 59 58 61
36 39 40 40 48 49 35 22 16 13 18 19 13 10 10 11 12 10 11 11 9 10 12 11 14 23 29 27 20 15 17 20 17 11 11 18 24 27 25 19 19 21 22 23 25 24 24 24 22 20 17 16 17 17 20 24 28 31 34 39 45 49 51 53 55 55 55 56 57 56 56 60 63 61 55 50 50 55 60 61 58 60 66 69 69 70
34 35 37 39 45 47 38 29 22 19 24 26 20 14 11 10 11 15 20 22 18 12 13 17 20 24 29 27 19 16 16 14 13 13 15 18 22 25 23 15 14 17 18 21 24 24 24 23 20 18 17 15 14 15 18 23 26 30 36 42 47 50 50 51 53 55 56 56 56 56 56 58 60 59 56 55 58 63 65 63 64 71 78 78 77 74
29 30 33 39 44 45 41 36 31 27 28 26 19 15 17 15 13 20 32 38 36 29 27 34 38 36 37 35 23 17 15 14 20 26 23 18 18 21 21 15 10 11 13 15 17 17 18 20 18 16 15 13 15 17 19 22 25 29 36 41 45 48 49 51 53 54 55 56 56 55 55 56 57 58 58 59 62 65 66 66 69 76 81 81 79 75
22 26 36 45 46 46 45 40 32 29 26 23 21 20 23 22 17 22 37 46 49 47 41 43 50 47 44 43 33 21 15 17 31 39 34 29 25 18 18 19 15 13 13 14 15 15 14 15 16 15 14 13 15 17 19 22 25 30 36 41 44 47 48 51 53 52 54 56 55 54 54 54 56 58 58 60 62 63 63 65 68 73 78 78 77 74
28 35 48 56 54 50 48 41 31 30 32 32 30 26 24 26 25 30 45 54 55 56 52 53 61 57 49 49 43 30 22 27 44 53 50 47 39 22 16 17 17 19 20 20 22 21 19 19 18 15 14 14 16 18 19 22 26 30 34 37 40 44 48 51 51 51 52 53 54 54 53 53 55 56 58 59 59 60 62 63 65 67 67 66 67 67
40 46 51 57 62 57 53 47 32 30 43 51 45 33 25 26 28 35 55 67 61 56 56 60 66 65 59 58 54 47 44 50 63 69 64 61 54 36 21 14 12 14 15 14 15 17 18 18 18 16 17 18 17 18 20 23 28 32 33 34 35 40 44 47 48 49 50 50 52 54 54 53 54 55 56 56 56 59 62 62 61 60 59 60 63 66
57 62 60 64 71 66 61 55 37 36 60 71 63 55 45 32 24 31 55 70 63 55 56 60 66 68 66 65 66 68 70 70 76 78 70 62 57 45 33 25 20 18 16 13 12 12 12 12 11 13 18 21 21 21 22 24 27 29 29 29 34 39 42 43 44 44 45 47 50 53 55 54 53 53 54 56 57 59 60 60 59 60 61 65 69 72
74 80 80 83 84 74 69 63 49 52 73 75 68 71 59 33 25 38 55 61 58 57 57 59 65 67 67 69 73 80 84 79 77 77 66 54 50 46 41 37 32 31 31 28 23 17 14 13 12 11 13 15 18 20 22 24 24 25 25 27 34 39 37 36 39 40 42 47 50 52 54 54 53 53 54 58 61 61 60 60 61 62 65 70 74 77
87 90 92 94 92 84 78 72 63 64 71 69 69 68 51 33 38 54 61 57 57 62 62 62 67 71 75 80 81 82 85 80 74 72 64 55 49 46 44 40 34 31 32 33 30 24 19 16 16 15 15 16 18 20 22 24 24 20 19 22 28 31 30 33 39 41 44 48 50 50 51 52 53 55 57 61 66 65 62 63 66 67 70 75 78 81
92 95 97 97 95 92 88 84 82 78 70 68 74 72 62 58 59 61 61 60 63 70 70 70 74 74 76 82 81 78 76 72 68 66 63 60 58 54 51 48 43 39 37 35 32 27 24 22 21 22 24 25 28 32 34 36 36 31 29 29 25 24 27 34 41 45 47 50 50 49 50 50 51 55 58 62 67 66 63 66 73 78 80 81 82 84
93 96 99 96 93 95 95 92 92 87 75 72 82 86 82 76 64 58 65 71 74 77 76 78 82 78 72 73 75 72 69 67 66 64 61 61 61 59 57 55 53 51 48 44 42 38 35 32 30 31 33 33 36 40 43 44 45 46 48 48 45 44 46 46 47 48 49 49 48 48 48 47 50 56 60 63 70 72 68 70 80 87 87 85 84 84
94 91 93 94 91 92 95 92 87 83 77 77 86 88 81 71 63 64 70 75 80 83 81 82 86 82 72 68 69 72 74 73 72 69 66 66 65 62 62 61 59 58 55 52 51 51 47 42 38 39 44 44 42 44 47 48 49 51 52 53 54 56 59 59 56 52 50 49 47 47 47 47 51 57 61 66 75 78 74 78 88 92 91 89 88 89
89 87 90 96 93 86 86 88 85 84 83 81 81 80 73 66 66 70 71 75 82 86 85 85 87 85 77 70 70 79 84 80 75 74 73 73 71 68 67 65 63 62 58 53 51 51 51 50 47 47 52 55 53 53 54 55 56 56 56 56 56 57 61 66 66 58 53 50 46 45 47 50 58 69 78 84 89 89 87 91 95 95 96 96 94 95
88 88 91 96 93 85 86 92 91 88 88 85 81 79 73 66 65 68 70 72 77 81 82 81 80 78 75 72 73 82 87 82 79 80 79 77 78 78 76 74 71 68 65 62 59 54 52 52 51 49 51 56 58 60 61 61 61 59 57 57 60 62 65 70 72 68 65 61 59 61 67 72 81 91 95 97 99 98 98 98 97 95 95 94 95 99
86 88 92 94 94 90 89 92 91 85 82 79 79 82 81 74 68 67 68 69 71 73 73 71 68 66 66 69 72 76 79 80 81 83 83 83 85 85 83 82 82 81 78 75 70 62 57 57 56 53 52 54 55 56 59 62 62 59 57 58 60 62 61 63 72 83 89 87 86 90 94 95 97 99 99 100 100 98 95 91 90 91 89 87 90 89
80 89 94 93 95 95 91 90 90 86 82 81 79 78 78 77 72 66 64 65 68 69 67 64 64 64 64 67 69 68 70 76 78 79 83 85 85 85 88 90 92 91 89 88 84 75 69 69 71 68 65 63 60 56 57 59 60 59 56 55 54 54 55 58 65 79 92 96 98 99 100 100 99 99 101 100 96 94 91 86 84 87 88 89 89 77
87 97 96 93 97 99 94 92 94 93 94 95 88 77 72 75 75 68 62 61 62 64 64 61 61 63 64 65 65 65 68 73 77 78 82 84 85 88 92 95 96 94 93 95 96 90 83 84 87 86 82 77 74 68 63 62 62 60 55 52 50 50 58 66 67 70 82 94 98 98 99 101 101 99 97 92 87 89 92 90 87 88 88 90 89 80
93 95 95 96 99 95 87 88 92 94 96 96 86 72 65 67 71 68 63 60 56 53 54 56 56 57 60 61 62 65 70 74 78 79 81 85 88 91 94 96 97 97 97 98 98 96 94 94 96 96 92 90 90 86 78 71 68 64 61 65 71 73 79 88 90 87 91 98 100 99 99 98 93 91 91 89 87 88 89 89 93 96 95 90 83 77
Wind_Speed
11 5 6 8 6 7 7 8 8 6 7 9 8 6 7 7 8 9 7 5 14 12 10 13 13 13 18 20 22 32 34 28 28 30 31 33 34 37 38 39 41 43 46 44 41 43 43 42 41 40 39 38 37 36 34 34 33 33 33 33 33 32 32 32 33 33 31 29 28 27 27 26 26 24 23 22 22 21 19 18 17 16 16 14 13 12
11 8 9 10 7 7 7 7 7 8 10 10 8 8 8 6 10 10 6 4 12 12 9 11 13 13 16 18 21 29 26 22 28 29 30 35 35 38 40 41 44 44 44 43 41 42 44 44 42 42 41 40 39 39 37 36 35 35 34 34 33 32 31 31 32 34 34 32 30 29 29 28 26 25 23 23 23 22 21 19 18 17 16 14 13 12
8 9 11 10 7 7 7 7 8 10 11 10 8 7 8 7 8 10 7 5 9 8 7 11 13 12 14 17 19 24 23 24 35 37 35 39 37 37 41 42 44 42 40 41 42 43 44 45 45 44 44 42 41 40 40 38 35 35 36 35 35 34 33 31 31 34 35 33 31 29 28 27 25 24 23 23 22 22 22 20 19 18 16 15 14 13
6 7 10 9 8 9 9 9 9 8 10 10 9 6 8 10 5 6 7 4 8 8 9 13 11 7 9 12 15 23 28 28 36 41 40 43 42 41 45 46 45 43 41 43 44 45 45 45 46 47 46 45 43 42 42 41 39 38 38 37 38 37 36 33 31 33 34 33 32 29 27 25 24 24 23 23 22 23 23 22 21 19 18 17 15 15
7 5 11 12 10 12 11 12 10 7 7 10 12 9 10 12 8 8 7 4 5 6 8 11 6 2 6 10 12 18 24 25 31 36 35 40 45 46 47 46 47 48 47 47 47 46 46 47 49 49 49 46 45 45 44 43 42 41 39 38 39 39 38 36 33 32 32 32 33 32 30 27 26 26 25 25 25 24 25 24 23 22 19 18 17 16
10 8 14 14 12 14 13 12 12 9 6 8 13 15 15 14 10 9 7 5 3 4 5 10 5 3 5 10 14 13 13 16 23 26 28 35 40 41 42 43 46 49 50 51 50 49 48 48 49 50 49 48 47 47 45 44 44 42 41 39 39 40 40 38 36 34 33 32 33 34 34 33 31 31 30 29 27 26 26 26 25 23 21 18 17 15
8 10 12 13 14 15 14 12 13 11 7 7 10 13 17 17 12 12 9 3 1 5 5 10 8 4 4 7 12 15 13 14 17 18 23 32 36 37 40 43 45 47 48 50 51 51 50 49 49 50 50 50 50 49 47 45 45 44 42 41 40 40 41 40 38 37 35 34 33 33 34 35 34 33 32 30 27 26 25 25 24 23 21 19 16 15
8 13 12 13 14 13 12 11 13 13 9 8 8 8 14 17 16 15 11 6 5 4 5 7 6 4 5 8 11 16 17 14 14 15 19 27 35 38 41 44 46 48 48 49 50 51 52 51 51 52 52 51 51 50 48 47 46 45 45 43 42 41 42 42 41 39 38 37 35 33 33 34 34 33 31 28 26 25 23 22 23 22 21 19 17 16
8 14 15 15 12 9 10 11 13 14 10 8 7 8 11 13 16 15 10 7 6 4 6 6 3 1 4 7 8 12 16 15 16 18 17 23 34 39 41 44 47 49 51 51 52 52 53 53 53 54 53 53 52 50 49 48 47 46 46 45 44 43 43 43 43 41 40 39 37 35 33 33 33 32 29 27 26 24 22 22 22 21 20 19 18 17
6 13 17 15 12 9 9 11 13 14 11 9 8 7 9 9 11 11 8 8 5 6 8 8 7 5 5 4 7 8 11 14 15 17 16 22 35 41 42 45 47 49 51 51 53 54 54 55 55 55 54 54 53 52 51 49 48 47 47 47 46 45 43 44 44 44 42 41 39 38 36 34 32 32 30 28 26 25 23 23 22 21 20 20 20 19
7 12 15 13 13 12 10 12 14 15 14 10 7 6 8 7 7 5 4 5 5 6 9 10 12 10 6 5 9 9 12 16 15 14 15 19 31 40 44 46 47 48 50 51 52 53 54 55 55 54 54 54 54 53 52 51 50 49 48 48 48 46 44 44 44 45 44 43 41 40 38 35 33 32 31 30 28 27 26 25 24 22 22 22 21 21
9 10 8 9 15 16 11 11 13 16 17 12 6 6 6 6 4 5 3 3 6 8 7 10 13 13 9 6 8 13 16 20 17 15 17 17 25 37 43 46 48 50 50 51 51 52 52 53 53 53 54 54 55 54 54 53 52 51 50 50 49 48 46 45 44 45 45 45 44 42 40 37 34 32 32 31 30 29 29 27 26 24 24 24 23 22
8 10 8 9 14 16 11 8 9 12 14 12 7 6 6 4 4 6 6 4 6 7 6 9 11 11 10 7 10 17 17 16 16 18 22 22 26 35 42 45 48 50 51 51 52 52 52 52 53 53 54 54 54 55 55 54 54 53 52 51 50 49 48 46 45 45 46 46 45 44 42 38 36 34 33 32 31 31 30 29 28 27 27 26 25 25
4 6 10 11 11 13 13 8 7 8 10 12 9 7 7 6 6 8 6 4 4 6 5 8 9 6 6 5 11 18 17 18 22 27 31 31 32 38 43 47 49 50 51 52 53 52 52 54 55 55 55 55 55 56 56 56 55 54 53 53 51 50 49 48 47 46 46 46 46 45 43 40 37 35 34 33 32 32 31 30 29 28 28 27 26 25
7 6 9 12 9 10 13 11 9 7 8 11 9 8 8 6 5 5 4 4 5 5 5 4 5 5 5 6 12 17 19 23 29 33 35 36 37 40 42 44 46 48 50 52 53 53 54 55 56 56 56 56 56 57 57 56 56 56 55 54 53 51 49 49 48 47 46 46 46 45 44 41 39 37 35 35 34 33 32 31 30 28 28 27 26 24
10 9 7 12 11 10 11 10 9 8 7 9 8 8 8 6 4 3 4 6 4 3 4 3 4 5 5 6 11 16 18 20 24 29 30 31 34 36 36 39 43 46 49 50 51 53 54 55 56 56 56 57 57 57 57 57 57 57 56 55 53 51 50 49 49 47 46 45 45 45 45 43 40 38 37 36 35 34 33 32 30 29 29 28 26 25
8 8 7 10 11 12 13 9 10 10 6 5 8 9 7 8 8 6 5 3 2 3 5 4 4 4 3 5 6 11 16 16 17 19 21 26 33 33 32 37 41 44 47 50 52 53 55 56 56 56 57 57 57 57 58 58 58 58 57 55 54 52 50 49 49 47 45 44 44 44 45 44 42 40 39 38 37 36 35 33 31 30 30 29 27 26
5 5 7 11 12 15 19 14 10 11 9 5 7 8 5 6 7 5 2 3 5 6 4 4 6 5 4 6 5 7 12 14 14 14 16 22 29 29 31 38 41 44 47 50 53 55 55 56 56 56 57 57 58 58 59 59 59 58 57 55 54 53 52 50 48 47 45 44 43 43 44 45 44 42 40 39 38 36 36 35 33 32 31 30 28 27
5 4 6 11 13 13 14 13 9 10 11 8 6 7 6 5 6 5 4 5 7 6 5 5 7 5 5 5 5 9 12 14 14 14 15 18 21 26 32 37 41 43 45 48 52 54 55 56 56 57 57 57 58 58 58 58 58 58 56 55 54 53 52 50 47 46 46 44 42 42 42 43 44 43 41 40 39 38 37 37 35 34 33 31 29 28
5 4 5 7 11 10 7 8 8 9 10 8 5 6 5 5 7 6 4 4 5 6 5 4 4 5 6 5 7 11 14 16 16 15 15 16 21 29 34 37 40 42 42 46 50 53 55 56 57 57 57 57 57 57 57 57 57 57 56 55 54 53 52 50 48 46 45 45 43 41 40 41 43 44 43 41 40 40 39 38 37 35 34 32 31 30
5 5 5 5 6 8 6 6 10 10 9 8 7 7 6 3 3 5 5 4 5 4 4 4 5 6 6 5 8 12 14 16 17 17 16 17 24 34 37 39 42 43 45 48 50 52 55 57 57 57 57 56 56 56 56 56 56 57 56 56 55 53 52 52 50 47 45 45 44 42 40 40 41 43 43 42 41 41 40 40 38 37 36 34 32 31
6 5 7 6 5 7 6 6 11 14 12 10 8 9 9 5 3 4 7 4 3 5 5 5 6 7 6 5 8 10 12 13 16 17 15 17 27 36 39 42 44 45 47 49 50 52 54 55 55 55 55 54 54 55 55 56 56 56 56 56 55 54 53 53 51 49 46 45 44 42 40 39 40 42 43 43 42 42 42 41 40 39 38 36 35 33
10 6 7 9 7 8 9 7 10 16 17 14 11 9 8 6 5 5 6 3 3 5 4 4 6 8 6 6 7 8 9 11 17 19 16 20 30 35 38 42 44 46 49 50 51 53 53 54 54 53 53 52 53 54 54 55 56 56 57 57 56 55 54 53 51 49 48 46 45 42 39 38 39 41 42 43 44 43 43 42 42 40 40 38 36 35
10 6 6 8 7 8 11 8 6 10 14 13 12 10 9 9 8 6 5 4 3 5 4 4 7 7 5 5 7 7 7 9 15 20 21 23 28 31 36 40 43 46 50 51 52 53 53 53 51 50 50 51 52 53 53 54 55 56 56 56 56 56 54 52 51 50 49 48 47 43 40 38 39 41 42 43 44 44 43 43 43 42 41 40 38 37
6 7 7 6 6 7 9 9 7 7 9 9 10 12 14 13 11 6 4 4 4 6 7 5 8 6 5 5 8 9 7 7 10 18 22 21 22 27 33 38 42 46 49 49 51 52 50 47 47 48 51 52 53 52 52 53 54 55 55 56 56 55 53 52 51 51 51 50 49 46 43 40 39 41 43 43 44 45 44 44 44 43 42 41 40 39
6 7 8 8 9 10 9 9 8 6 7 7 9 14 17 17 15 9 4 5 6 5 5 5 7 5 6 5 10 14 13 8 8 14 20 24 27 30 33 37 42 44 46 48 50 48 44 43 45 49 51 51 52 52 51 52 53 54 55 55 54 53 52 52 51 51 51 51 50 49 45 42 41 41 42 43 44 44 45 45 45 45 43 42 41 41
4 5 8 14 14 12 11 9 6 6 8 10 10 13 16 18 18 12 6 7 6 4 5 7 5 4 7 7 11 15 16 12 8 9 14 20 25 29 34 39 42 44 46 47 47 45 42 42 45 48 50 51 51 51 51 52 53 54 54 54 53 52 52 52 51 51 52 52 52 50 48 45 42 41 42 43 44 45 45 46 46 46 45 44 43 42
1 4 8 14 17 17 15 13 11 9 10 14 15 14 16 18 18 15 11 8 8 6 9 9 6 6 8 8 9 12 13 10 6 7 12 18 21 24 31 37 41 43 45 44 44 43 43 44 46 47 48 50 50 51 51 51 52 53 54 54 53 52 52 52 52 52 52 52 52 52 50 47 43 41 41 42 44 45 46 47 47 47 46 45 45 44
1 4 6 8 14 19 19 17 18 14 8 11 15 16 17 20 21 20 16 10 11 9 12 8 9 9 8 8 9 10 9 8 7 10 15 20 23 25 26 31 35 37 37 38 41 43 44 46 47 47 48 48 48 50 51 51 51 52 53 53 53 52 53 53 53 54 53 53 53 52 51 49 46 43 42 43 45 47 48 48 48 48 48 47 46 45
3 4 5 11 12 16 20 19 19 18 12 9 12 15 16 18 22 22 19 14 13 12 10 8 10 10 8 8 10 10 10 10 10 10 12 16 22 26 26 27 29 32 34 37 41 43 45 46 46 47 48 47 47 48 49 50 51 52 53 53 53 54 54 54 54 54 54 54 54 53 51 50 48 46 45 45 46 47 49 49 49 49 49 48 47 46
4 4 7 11 10 9 17 21 19 19 17 12 10 13 15 16 18 19 18 15 12 11 8 8 10 9 6 6 8 9 9 8 6 5 9 15 19 23 27 29 31 34 38 42 45 47 47 47 46 46 46 46 45 46 47 48 50 51 53 53 54 54 54 54 55 55 56 55 54 53 52 51 50 49 48 47 47 48 49 50 50 50 51 50 48 47
5 5 7 7 6 6 10 19 22 20 17 14 12 13 14 14 14 14 13 12 10 9 8 7 8 7 6 7 8 9 8 9 7 6 9 13 15 16 22 27 31 36 41 44 46 46 46 46 46 46 46 46 44 44 45 47 49 51 53 54 55 55 55 55 56 56 56 55 53 53 52 52 52 51 50 49 48 48 49 50 51 51 51 51 49 48
5 6 6 6 4 6 10 14 20 18 13 13 14 12 11 9 10 11 11 12 12 10 8 8 8 7 7 8 8 9 7 7 9 9 11 15 17 17 20 26 29 33 37 41 43 44 44 46 46 47 47 45 43 43 45 47 50 52 53 55 55 55 55 55 56 56 56 54 53 53 52 52 53 52 51 50 49 49 50 51 52 52 52 51 49 47
8 7 5 4 2 6 13 13 14 16 12 11 8 10 13 11 10 9 7 9 11 8 6 7 8 8 8 9 9 10 8 8 14 16 14 16 22 24 24 25 27 30 33 36 39 42 44 45 46 46 46 44 42 42 44 47 50 52 53 54 55 54 55 56 56 56 56 55 54 53 52 52 53 53 51 50 50 50 51 52 52 52 51 50 48 47
10 8 6 3 3 6 10 9 11 13 11 8 3 7 13 13 12 9 2 2 5 7 5 3 2 5 5 5 8 10 8 7 5 2 3 1 13 24 27 25 24 26 31 35 37 40 43 44 44 44 44 45 44 44 46 48 50 51 53 53 53 53 54 55 56 56 56 56 55 54 53 53 53 52 51 50 50 51 51 52 52 51 50 49 48 47
10 8 5 3 4 5 5 4 9 8 5 3 1 3 6 8 10 9 5 5 4 3 3 5 5 5 3 1 5 10 15 18 16 17 17 10 3 10 19 26 28 27 30 33 34 36 38 42 44 44 45 47 47 47 48 49 50 52 53 53 53 53 54 54 55 56 56 57 56 55 54 54 53 52 51 50 50 50 50 51 51 50 49 48 46 45
10 8 5 4 4 3 3 5 5 4 2 2 1 1 3 5 9 9 5 3 6 5 2 7 8 6 5 4 1 6 13 16 13 15 17 16 11 5 8 19 28 33 35 36 37 36 36 40 44 46 46 47 48 49 50 50 51 53 53 53 52 52 53 54 55 56 56 57 57 56 55 54 53 52 51 50 50 50 50 49 49 49 48 46 46 45
9 7 5 4 3 1 3 5 3 3 4 3 2 2 4 6 8 10 8 1 6 6 2 5 7 5 6 5 3 2 6 8 4 6 15 20 17 10 5 8 17 26 30 33 36 38 38 42 47 48 49 48 48 50 49 49 51 53 53 52 52 52 53 54 56 57 57 58 58 58 56 54 53 52 50 50 50 49 49 48 47 47 46 45 45 43
6 3 5 3 1 2 3 5 4 4 3 4 8 6 1 6 9 11 8 1 5 6 4 4 7 6 6 7 6 4 6 5 1 5 10 16 17 14 9 2 7 14 17 20 25 30 33 37 41 45 49 49 48 48 48 47 48 49 50 49 49 51 53 55 57 57 58 58 59 58 57 55 53 52 51 50 50 49 48 47 46 45 44 43 43 41
4 2 4 2 1 4 4 5 4 3 2 10 13 14 14 5 8 11 4 3 5 5 4 7 8 6 6 9 9 8 5 4 4 4 9 12 13 15 12 8 4 4 8 11 18 24 28 30 30 34 42 47 49 49 49 47 46 46 47 47 48 51 53 55 56 57 57 58 58 58 57 56 54 53 52 51 50 49 48 46 45 44 44 44 43 40
3 1 3 2 2 5 5 5 3 2 3 12 15 17 20 11 5 7 4 6 3 1 7 11 10 8 10 11 10 7 4 4 4 4 9 10 10 12 13 11 9 7 4 3 8 15 21 25 27 28 31 36 42 45 46 47 47 46 46 46 48 51 53 54 55 55 56 57 58 57 56 55 55 54 53 52 51 49 48 47 47 46 45 44 42 40
2 1 3 2 1 3 4 4 4 1 4 17 25 24 16 5 4 5 4 5 6 8 12 15 13 13 18 19 16 13 10 8 8 9 11 11 10 11 11 9 8 7 6 4 2 7 11 15 21 27 29 31 35 40 42 45 49 50 49 49 50 51 52 52 54 56 58 58 58 57 56 55 55 55 53 53 52 51 50 49 48 48 47 45 42 40
1 1 3 2 0 2 3 3 2 2 7 22 26 17 11 7 3 3 7 9 12 15 17 17 16 16 20 22 20 17 14 12 12 12 12 12 11 11 10 8 7 6 4 4 2 3 6 8 13 21 30 33 35 37 38 40 43 46 47 48 49 50 52 54 55 56 57 57 57 57 56 55 55 55 55 55 54 52 51 51 50 49 47 44 42 41
1 0 2 2 0 1 1 2 1 3 10 19 15 5 5 11 7 6 13 11 13 17 20 19 17 17 20 21 20 18 17 15 14 13 12 13 13 12 10 9 7 6 4 4 3 1 2 4 6 10 18 26 30 32 33 34 37 40 41 41 42 42 44 49 54 55 55 55 56 56 55 54 54 55 55 55 54 53 53 52 51 50 47 45 43 43
1 1 1 2 1 1 2 3 4 5 10 17 15 10 12 17 15 14 18 18 16 16 19 21 18 17 20 20 20 20 19 17 15 14 14 15 14 13 12 11 10 8 7 5 3 2 2 2 3 4 7 13 21 27 29 31 34 37 39 40 40 38 36 37 44 50 53 54 55 55 55 54 53 53 55 55 54 55 54 53 51 49 47 45 43 42
1 2 1 2 2 1 2 5 7 7 11 18 21 21 21 23 21 16 17 22 22 21 23 24 22 21 21 21 22 22 20 17 16 15 15 15 14 13 13 12 12 11 11 9 8 6 5 3 4 5 4 7 14 21 24 28 30 32 34 36 36 37 35 31 34 42 49 52 55 55 54 53 51 50 50 50 50 50 51 51 51 48 44 42 39 38
1 2 2 1 1 1 2 2 4 7 9 15 22 25 26 25 22 19 18 19 22 25 27 26 25 25 24 23 25 24 21 19 18 17 16 15 15 16 15 14 14 13 13 13 12 11 9 7 6 6 6 7 10 15 19 24 27 30 33 35 34 34 31 24 24 34 42 45 48 49 48 48 49 47 47 47 49 50 49 47 44 41 38 36 34 34
2 2 1 2 1 2 2 3 9 9 8 17 23 23 24 24 21 19 18 19 22 26 26 25 25 25 24 24 25 24 23 21 20 19 18 17 17 17 17 16 15 14 13 13 12 11 10 10 8 7 8 8 9 13 17 22 27 30 33 35 35 36 34 28 25 30 33 34 38 42 44 46 49 50 51 50 49 48 45 41 37 35 33 32 32 35
3 1 1 2 1 3 1 5 10 9 8 16 22 22 22 21 19 17 18 20 23 25 26 26 26 24 25 25 23 22 24 24 22 21 21 20 20 20 20 19 18 16 15 13 11 9 8 8 6 6 7 7 9 13 16 19 23 27 30 31 33 36 37 34 32 36 36 34 36 42 46 49 52 53 52 49 44 41 40 37 33 31 31 32 32 32
2 1 1 2 2 0 0 4 7 5 3 9 15 18 19 19 18 17 18 19 22 24 25 27 27 27 26 25 23 22 25 26 24 23 23 23 24 23 23 22 21 18 16 14 12 9 6 5 5 5 4 5 7 11 14 16 19 21 23 27 30 34 35 36 39 45 48 45 44 47 50 52 53 51 47 44 43 40 38 34 30 29 30 31 28 23
2 2 2 2 2 1 2 5 8 4 2 5 10 14 16 16 17 18 18 18 19 23 25 26 27 28 27 26 25 24 26 26 24 24 25 26 25 25 24 24 24 22 20 18 15 11 8 7 6 5 3 2 5 8 12 14 16 18 19 21 24 28 34 39 41 42 45 47 48 51 53 51 49 45 40 39 39 37 35 33 31 29 28 25 20 17
Wind_Direction
200 221 230 223 225 218 233 226 216 233 239 249 259 254 250 260 264 255 268 204 165 168 188 177 171 169 167 168 169 173 174 172 171 170 173 177 178 181 183 184 189 194 199 201 202 204 203 204 205 206 206 206 207 209 210 212 212 210 209 209 209 207 204 202 201 203 203 202 204 206 207 210 210 208 209 214 218 221 223 223 223 224 225 228 228 228
196 219 232 220 220 218 231 236 220 230 247 254 253 260 261 253 261 265 288 244 181 171 192 181 170 176 175 173 170 170 173 174 174 173 175 178 180 183 184 186 191 196 198 198 201 203 203 204 204 205 206 206 207 208 210 213 212 211 211 211 210 208 207 206 204 204 205 206 207 208 209 210 209 208 209 213 217 220 222 223 224 225 226 228 229 230
205 224 227 215 216 220 231 239 230 229 240 251 249 257 264 251 268 276 274 242 202 181 186 181 177 188 183 177 173 171 176 179 178 177 177 178 180 183 186 187 191 194 195 196 199 200 202 203 203 203 205 208 209 209 210 212 212 211 212 212 212 210 209 209 208 208 208 209 211 213 213 211 211 211 211 214 217 219 220 223 225 226 227 227 228 227
214 222 211 206 208 218 233 237 233 233 233 243 243 242 256 251 256 267 267 236 207 202 192 184 180 192 183 176 179 178 179 180 180 181 180 180 181 184 188 189 190 191 192 195 198 199 202 203 202 203 205 208 210 209 210 210 211 211 212 213 213 212 211 210 210 211 212 212 213 217 219 217 216 216 215 217 219 219 220 224 227 230 230 229 229 228
225 198 189 199 205 209 225 234 230 229 230 241 241 236 246 250 244 242 271 304 239 221 185 175 168 211 185 173 187 185 179 179 181 183 183 184 185 186 188 189 190 192 193 194 196 198 201 203 204 205 206 207 209 210 211 211 211 211 213 214 214 214 213 211 211 212 213 213 214 216 218 220 220 219 220 219 219 219 221 224 228 231 232 232 231 231
230 197 186 200 207 206 214 227 227 220 225 244 241 238 241 248 253 250 275 342 301 261 179 163 168 266 230 184 185 186 180 181 181 182 186 188 188 187 187 189 192 193 195 196 196 197 200 203 205 206 206 207 208 211 213 214 214 213 214 214 214 215 215 214 212 211 212 213 215 216 216 217 217 218 219 220 220 220 223 227 229 232 233 233 232 231
221 200 193 205 206 206 211 219 225 217 214 239 234 236 245 249 256 258 268 314 241 260 213 178 182 222 250 215 190 181 183 187 184 185 187 188 190 189 188 191 193 194 196 197 198 197 199 201 203 205 206 207 208 211 214 216 216 216 215 214 215 216 216 216 214 211 211 214 216 218 219 219 218 218 219 220 221 222 224 228 229 229 231 231 231 231
188 196 207 215 208 208 211 213 219 213 213 235 220 217 239 247 251 253 257 252 224 260 261 207 185 163 201 220 199 182 183 188 188 191 190 189 191 191 191 192 193 195 196 197 198 198 199 201 202 204 207 208 210 212 213 215 216 216 216 216 216 217 217 217 216 213 212 214 217 218 220 221 219 219 221 220 219 220 221 225 226 226 227 228 230 232
168 192 206 212 215 216 214 213 212 208 221 237 211 204 227 237 247 248 249 251 219 214 265 247 198 192 226 216 200 185 183 189 195 196 193 190 192 193 193 194 194 196 197 198 199 200 200 202 204 206 207 209 211 212 214 216 217 217 217 216 216 217 218 218 218 217 216 216 218 219 219 220 220 220 223 223 220 218 217 220 223 223 225 226 229 231
181 200 201 203 220 222 210 217 214 209 224 231 206 214 235 237 246 247 238 244 224 193 228 228 192 216 269 228 195 194 190 194 200 200 196 191 192 194 194 195 196 197 198 200 201 202 203 204 206 207 208 209 210 212 216 218 218 218 217 216 215 217 219 220 220 220 219 218 219 220 221 221 220 219 221 223 221 218 216 217 220 221 223 224 227 229
218 215 206 199 216 216 203 212 215 213 220 222 201 213 249 254 256 269 244 225 235 228 224 212 190 195 249 241 195 196 194 193 197 199 199 194 193 195 195 195 196 197 199 201 202 204 205 206 207 208 209 209 210 211 213 215 217 217 217 217 216 217 219 221 221 221 221 220 220 222 223 223 222 219 217 218 218 218 217 217 219 220 221 222 225 229
230 227 223 209 211 208 200 207 213 214 217 220 201 189 231 260 272 286 278 206 224 240 228 209 196 194 219 240 204 206 204 196 192 191 196 196 195 196 196 196 196 196 198 200 202 204 205 206 206 207 209 209 209 209 210 212 215 216 217 217 217 217 218 220 221 221 221 222 222 224 226 225 224 221 218 216 216 217 217 218 219 220 220 221 225 228
230 230 235 233 221 207 198 206 213 213 213 214 201 178 199 222 239 243 240 228 227 242 232 199 194 200 216 221 202 208 211 203 197 195 195 194 193 194 195 196 196 196 198 199 202 204 205 205 206 206 209 209 208 208 209 210 212 214 216 217 218 218 218 219 221 221 222 223 225 227 227 226 224 222 220 217 217 218 219 219 219 221 221 222 224 227
239 245 230 231 235 215 205 200 203 207 206 209 198 177 189 195 207 223 231 253 247 259 254 194 186 205 225 228 203 201 206 205 203 203 200 195 192 193 194 195 196 196 197 199 201 203 205 206 207 208 209 209 209 209 209 210 210 212 214 216 218 219 219 218 219 221 222 224 227 228 228 227 224 222 221 219 218 219 219 219 221 224 224 224 227 230
216 243 219 215 219 207 210 207 196 184 188 208 200 184 199 192 195 214 205 221 232 255 268 207 190 196 195 214 201 195 203 204 203 205 204 200 197 195 194 194 195 196 197 199 201 203 205 208 209 209 209 209 210 210 210 210 210 211 212 215 217 218 218 218 218 220 222 224 227 228 228 227 225 223 222 221 221 221 221 221 224 227 227 228 231 234
214 239 225 218 214 200 212 208 184 167 181 208 195 192 210 184 172 232 205 197 196 223 246 217 206 209 208 221 198 192 201 201 202 204 201 200 200 196 193 192 193 196 197 199 201 203 206 210 211 210 209 210 211 210 210 210 210 211 212 214 216 217 218 218 219 220 222 225 226 227 228 227 225 224 223 221 222 222 223 224 227 229 229 231 233 235
203 237 232 221 227 218 216 205 183 180 182 202 197 199 198 167 181 229 237 226 195 224 241 215 231 267 264 252 218 199 203 198 198 201 195 196 198 195 194 194 194 195 197 198 201 203 206 210 211 211 210 211 210 210 211 211 211 212 212 213 214 215 217 218 219 220 222 224 226 227 228 227 225 225 223 222 222 222 224 225 228 230 231 231 233 233
180 247 237 210 228 230 220 217 215 196 171 164 200 201 174 159 187 200 207 244 233 243 260 218 230 247 222 241 243 203 206 204 198 194 193 197 197 195 197 198 197 196 196 199 201 204 207 209 211 212 212 212 212 212 213 213 212 212 213 215 214 213 215 218 220 221 222 223 224 227 228 227 226 225 224 223 222 222 224 226 228 229 231 232 233 232
185 258 265 213 219 228 218 215 232 223 195 182 187 187 173 177 193 183 183 211 215 231 261 241 233 222 205 228 217 193 201 205 200 194 195 197 196 199 201 200 200 199 197 198 200 204 207 209 211 212 212 212 213 214 214 213 211 211 213 215 215 216 217 219 219 221 221 222 224 226 228 229 227 226 225 224 223 223 224 227 228 228 230 231 232 231
194 222 267 235 218 216 211 201 213 229 217 198 182 184 185 182 192 197 193 187 194 215 235 241 238 233 225 209 191 197 200 198 198 197 198 198 197 201 203 203 203 202 199 199 201 204 207 209 212 213 212 212 213 213 212 211 210 210 212 214 216 217 217 217 217 219 220 221 223 225 227 229 228 227 226 225 223 223 224 227 229 229 230 230 230 230
192 203 235 269 247 216 210 201 200 206 209 205 199 201 209 199 191 211 207 172 158 178 198 213 231 251 247 198 185 200 203 200 200 198 199 200 199 202 204 203 203 203 202 202 203 205 207 211 212 213 213 212 212 212 210 209 210 210 211 213 215 215 215 215 216 218 220 220 221 223 226 228 229 228 227 226 224 223 224 227 229 230 231 231 230 229
194 207 220 242 255 228 220 211 196 194 198 203 205 206 206 195 156 191 220 214 164 180 179 190 234 256 245 192 186 201 203 202 201 199 203 203 201 204 205 203 203 203 203 204 204 206 208 210 211 212 212 211 210 210 209 208 209 210 211 212 214 215 215 215 215 216 218 219 220 222 225 228 229 228 228 227 226 224 224 226 228 229 231 231 231 230
193 199 217 223 238 238 232 226 206 199 198 199 209 207 194 188 169 177 215 237 237 217 173 166 237 260 248 191 182 202 204 204 203 196 199 207 205 204 205 205 205 204 205 205 205 207 209 210 211 211 210 208 208 209 209 208 208 210 211 212 213 214 215 215 215 216 217 218 220 222 224 226 228 228 229 228 227 225 224 226 228 229 230 232 232 232
193 198 210 219 242 254 248 255 254 220 203 200 209 201 189 197 190 181 191 177 206 224 179 191 237 257 271 213 196 217 204 204 215 206 203 211 206 201 203 205 205 205 207 206 206 208 210 210 210 208 207 207 207 208 208 207 208 210 211 211 212 213 215 215 215 215 216 217 219 220 222 224 227 228 228 228 227 226 224 225 227 228 230 232 232 233
229 205 186 196 221 238 246 253 255 235 214 211 209 199 201 199 182 179 190 168 224 223 176 198 235 250 279 221 207 241 221 190 223 219 214 217 208 200 203 205 205 206 207 206 206 208 209 207 205 205 205 206 206 207 207 208 209 209 210 212 213 213 213 214 214 214 215 216 217 219 221 223 225 227 228 228 227 226 225 225 226 228 230 232 233 233
277 213 185 189 204 212 219 226 222 205 206 221 210 199 202 198 185 180 176 188 228 221 167 203 234 255 282 226 203 236 241 221 228 225 219 218 212 205 202 203 205 207 207 207 206 207 207 205 204 204 205 205 205 206 208 209 209 210 211 212 213 212 212 213 213 213 214 215 216 218 220 222 224 226 228 228 227 226 225 225 226 228 230 231 232 233
286 239 219 206 206 209 208 216 212 171 184 212 211 199 200 202 196 186 181 201 197 169 201 218 193 205 260 237 200 220 239 241 232 224 224 221 214 205 200 202 204 206 207 207 206 206 205 205 206 205 205 206 206 208 210 210 209 210 211 211 212 212 211 212 213 212 214 215 216 217 220 221 223 226 227 227 227 226 225 225 226 228 230 231 232 233
289 303 278 230 220 212 201 209 212 183 183 203 206 199 196 201 201 196 205 201 147 157 231 225 174 196 244 247 216 217 236 248 231 218 224 218 208 200 200 201 201 205 207 205 204 203 204 207 208 207 208 208 208 208 210 211 211 211 212 212 212 211 211 212 213 213 214 215 216 217 220 222 224 226 227 227 227 226 226 226 226 228 230 231 232 233
259 266 306 286 254 224 205 207 212 206 194 198 205 204 195 197 202 205 212 188 146 188 231 208 182 205 229 243 239 232 237 247 237 223 220 216 206 196 195 197 198 202 204 202 203 204 205 208 208 207 210 211 209 209 209 210 211 211 212 213 212 212 212 212 213 213 214 215 217 219 221 223 224 225 226 227 228 227 227 227 227 228 230 231 233 234
311 259 321 337 303 242 215 208 211 215 210 198 209 208 198 197 200 207 213 194 176 205 215 178 192 217 221 223 234 238 237 248 255 234 214 219 213 194 186 189 194 199 201 202 205 206 208 210 208 207 210 211 209 209 209 210 211 211 212 213 212 212 212 212 212 214 214 216 219 221 221 222 224 225 226 226 227 228 227 227 228 228 229 231 233 234
334 302 322 338 326 263 224 210 208 217 213 203 211 210 204 205 202 207 214 202 195 216 205 174 200 230 246 238 239 243 233 235 251 202 187 214 218 199 190 191 194 197 201 205 208 208 209 209 207 206 210 212 212 211 212 214 214 214 214 213 212 213 212 211 213 214 216 219 221 221 221 222 223 224 225 226 227 228 228 228 228 228 229 231 232 234
317 301 317 336 336 298 244 215 209 215 217 212 214 209 203 206 206 208 208 197 194 202 193 188 211 233 248 244 247 249 226 209 207 171 171 205 216 207 196 193 196 199 201 204 207 207 207 205 203 205 210 213 214 214 216 218 217 215 214 213 213 213 211 211 213 215 218 220 221 220 221 222 223 223 225 226 227 227 228 228 228 228 229 230 231 233
298 294 314 340 326 301 288 243 212 208 219 225 221 205 190 199 215 217 210 202 194 179 173 198 215 222 216 205 219 237 225 210 212 191 174 187 200 208 203 196 199 203 202 204 205 204 204 203 202 206 211 214 216 218 220 221 218 217 217 216 214 212 210 211 214 216 218 220 220 222 223 223 222 223 225 226 227 227 227 227 228 228 229 229 230 231
282 282 287 310 276 278 300 280 219 201 216 230 214 175 173 186 198 203 215 219 213 204 203 212 211 211 210 193 197 216 217 213 219 213 195 185 188 193 195 196 200 203 204 205 206 205 204 204 204 208 212 215 217 219 221 221 221 221 221 218 214 210 210 212 214 216 218 219 220 222 223 223 223 224 225 227 227 226 226 227 228 228 228 228 228 229
278 281 269 264 234 266 299 282 213 202 215 231 208 158 174 183 175 162 129 301 241 233 228 219 204 211 224 217 201 200 184 168 190 221 31 189 198 190 187 190 197 203 205 205 206 207 206 205 208 211 214 216 217 218 218 219 221 222 220 217 213 211 212 213 214 216 217 218 220 222 223 224 224 225 226 226 225 225 226 227 227 227 227 227 228 229
262 270 263 254 246 260 292 256 217 220 221 207 69 96 140 158 153 129 65 360 313 273 166 127 125 146 136 125 199 174 143 119 85 53 43 34 296 219 203 201 203 207 208 205 205 209 210 211 211 212 213 216 217 218 219 219 220 221 219 217 215 214 214 214 215 216 217 218 219 221 223 224 224 225 225 224 224 224 225 226 226 226 226 227 228 231
248 255 249 247 242 239 280 269 242 250 253 151 112 60 121 156 164 141 115 307 312 336 128 138 129 125 110 86 243 179 141 116 76 37 32 35 28 345 253 224 215 211 209 205 203 205 209 213 213 212 214 217 218 220 221 220 220 219 218 216 215 216 215 215 216 217 218 219 220 221 223 224 224 224 224 223 224 224 225 225 226 226 226 228 229 231
252 230 193 210 240 307 303 277 238 205 219 223 248 229 141 139 148 127 110 290 306 339 356 135 121 108 103 75 352 245 126 94 55 354 8 22 33 33 345 262 226 214 209 209 209 210 211 212 213 214 216 219 220 221 222 221 219 218 217 216 216 216 216 216 217 219 219 220 221 221 222 224 224 224 223 223 223 224 224 224 225 226 228 229 231 232
284 205 134 151 267 348 318 268 241 181 203 312 338 344 54 136 128 99 75 332 287 321 346 97 105 98 106 93 63 65 86 81 200 283 349 21 42 48 37 352 220 214 214 214 214 216 217 217 219 222 223 222 222 224 224 222 220 218 217 218 219 218 217 218 219 221 222 223 224 222 222 223 224 224 223 223 224 224 223 223 225 226 228 229 231 231
340 38 73 71 345 342 323 279 262 132 33 334 338 331 315 301 115 99 90 236 265 318 19 88 96 95 113 109 88 72 78 133 193 297 1 34 57 59 62 76 111 198 224 220 214 216 218 218 221 227 228 227 227 227 226 224 223 222 223 223 222 219 219 221 222 224 226 226 225 223 221 221 223 223 223 223 223 222 222 223 224 225 226 226 227 228
348 31 65 64 345 326 313 291 281 131 22 341 331 317 310 308 114 121 194 211 216 24 80 89 91 94 93 90 86 85 98 126 131 50 36 46 58 63 70 78 89 103 114 168 211 221 223 221 220 222 225 227 228 227 227 226 225 227 229 228 224 222 224 227 227 227 228 226 224 222 222 221 222 223 223 222 220 220 221 222 223 223 223 222 222 223
335 11 70 75 329 316 300 294 296 227 19 350 332 322 329 342 165 172 172 146 114 90 84 82 82 83 80 78 82 93 100 92 78 65 56 53 53 56 60 68 85 99 95 85 177 220 228 229 226 223 224 226 227 227 227 226 226 228 230 229 228 230 231 230 228 227 226 224 223 222 222 222 221 220 219 219 218 217 218 219 221 221 220 218 218 218
304 322 72 88 219 334 302 317 341 261 332 344 336 334 12 17 259 172 107 96 88 84 82 80 83 87 87 85 84 84 83 75 65 59 54 53 54 52 53 59 69 84 85 65 72 209 220 225 226 227 228 228 227 228 227 225 225 227 228 228 231 234 234 231 228 227 224 222 222 222 221 221 220 218 217 216 215 215 216 217 217 216 216 214 213 213
289 278 104 117 136 76 286 323 26 254 311 340 343 322 343 343 338 103 105 88 78 87 90 86 85 92 96 93 85 79 74 64 56 48 42 42 41 38 38 40 41 50 61 58 60 81 222 230 235 242 240 237 235 234 232 229 226 226 227 228 231 234 233 230 227 224 222 221 221 221 220 219 218 216 214 214 212 211 212 213 211 210 211 210 210 211
91 296 112 135 216 162 164 256 280 297 330 355 4 348 348 10 34 82 105 100 91 96 102 99 97 98 99 96 88 79 72 65 58 50 43 40 33 27 23 18 13 11 6 3 12 21 5 299 285 293 273 253 246 243 241 238 232 229 229 229 231 233 234 233 230 225 222 221 221 219 218 216 214 213 212 212 209 207 208 208 206 204 204 205 207 210
104 294 294 153 213 234 182 232 271 317 350 9 17 17 21 34 41 51 79 93 97 100 103 105 106 103 101 102 97 86 77 74 71 62 54 48 41 33 23 13 6 356 342 334 332 331 334 326 301 291 284 263 248 243 242 242 239 237 235 236 237 234 230 233 236 230 224 221 220 218 215 211 206 204 202 200 198 197 198 198 197 196 197 200 206 211
167 271 286 125 146 297 162 179 304 324 351 14 22 25 26 33 41 45 56 77 93 100 101 102 104 104 101 101 98 91 85 83 81 75 68 62 55 47 40 30 20 8 353 342 336 330 322 311 292 272 266 261 247 240 239 237 236 237 238 240 242 238 229 229 236 232 224 218 212 207 202 196 191 188 186 185 185 186 188 189 192 195 199 204 210 213
210 270 332 68 35 281 170 58 354 335 5 30 33 31 26 28 38 48 55 70 84 93 100 101 101 103 100 97 98 96 88 83 82 79 76 71 65 58 51 44 36 28 18 2 344 330 318 312 302 279 264 253 243 242 240 234 231 234 236 238 240 237 231 227 223 216 210 202 194 187 182 179 180 180 180 179 181 186 190 192 195 202 210 214 214 212
246 274 18 95 17 296 258 30 360 345 9 26 31 37 37 37 44 51 61 74 80 84 92 95 95 98 98 96 98 97 89 82 79 79 77 73 68 63 56 51 48 42 36 24 6 343 322 315 313 290 265 246 237 240 240 238 234 234 236 240 241 239 235 226 214 207 201 191 182 177 174 175 177 177 176 177 180 186 192 195 198 206 214 213 209 209
227 141 117 110 96 13 324 7 357 348 342 1 22 45 50 47 49 52 60 73 81 83 88 91 92 93 94 94 95 94 90 83 78 79 78 73 69 65 60 57 54 48 44 40 31 14 350 343 349 330 283 250 245 244 245 246 243 240 243 245 244 242 233 217 206 204 201 193 184 180 176 174 173 174 175 179 183 186 188 190 194 201 204 201 197 201
221 146 142 130 133 223 289 335 338 331 321 1 35 65 69 61 57 55 54 62 78 89 93 94 93 92 90 90 90 91 90 86 82 82 80 75 73 70 66 62 59 55 52 50 48 45 38 34 38 38 26 305 268 260 257 255 250 247 246 236 222 216 207 193 183 181 179 175 173 175 174 171 170 171 174 179 183 185 183 181 181 185 190 192 193 194